TimeHST,TemperatureF,Dew PointF,Humidity,Sea Level PressureIn,VisibilityMPH,Wind Direction,Wind SpeedMPH,Gust SpeedMPH,PrecipitationIn,Events,Conditions,WindDirDegrees,DateUTC
12:53 AM,72.0,69.1,91,29.94,10.0,South,3.5,-,0.00,,Overcast,170,2013-05-20 10:53:00
1:53 AM,71.1,68.0,90,29.92,10.0,Calm,Calm,-,N/A,,Mostly Cloudy,0,2013-05-20 11:53:00
2:53 AM,70.0,66.9,90,29.92,9.0,Calm,Calm,-,N/A,,Scattered Clouds,0,2013-05-20 12:53:00
3:53 AM,68.0,64.9,90,29.91,10.0,WSW,4.6,-,N/A,,Clear,250,2013-05-20 13:53:00
4:53 AM,66.9,62.1,84,29.92,10.0,WSW,5.8,-,N/A,,Clear,240,2013-05-20 14:53:00
5:53 AM,66.9,61.0,81,29.94,10.0,SW,6.9,-,N/A,,Mostly Cloudy,230,2013-05-20 15:53:00
6:53 AM,68.0,62.1,81,29.96,10.0,SW,5.8,-,N/A,,Mostly Cloudy,230,2013-05-20 16:53:00
7:53 AM,73.0,64.0,73,29.96,10.0,Calm,Calm,-,N/A,,Mostly Cloudy,0,2013-05-20 17:53:00
8:53 AM,78.1,66.0,66,29.97,10.0,Variable,3.5,-,0.00,,Mostly Cloudy,0,2013-05-20 18:53:00
9:53 AM,79.0,66.9,66,29.97,10.0,NNE,8.1,-,N/A,,Mostly Cloudy,20,2013-05-20 19:53:00
10:53 AM,80.1,66.9,64,29.96,10.0,North,9.2,-,N/A,,Mostly Cloudy,10,2013-05-20 20:53:00
11:53 AM,78.1,68.0,71,29.95,10.0,NE,8.1,-,N/A,,Mostly Cloudy,40,2013-05-20 21:53:00
12:53 PM,78.1,68.0,71,29.94,10.0,North,9.2,-,N/A,,Mostly Cloudy,10,2013-05-20 22:53:00
1:38 PM,75.9,68.0,76,29.93,10.0,North,6.9,-,0.00,Rain,Light Rain,350,2013-05-20 23:38:00
1:53 PM,75.9,69.1,79,29.92,10.0,North,9.2,-,0.00,Rain,Light Rain,10,2013-05-20 23:53:00
2:17 PM,75.9,68.0,76,29.92,10.0,North,9.2,-,0.00,,Overcast,360,2013-05-21 00:17:00
2:53 PM,75.9,68.0,76,29.91,10.0,NNW,10.4,-,0.00,,Overcast,340,2013-05-21 00:53:00
3:53 PM,75.9,66.9,74,29.91,10.0,NNW,9.2,-,N/A,,Overcast,330,2013-05-21 01:53:00
4:05 PM,75.0,66.0,73,29.92,10.0,NNW,8.1,-,N/A,,Overcast,340,2013-05-21 02:05:00
4:39 PM,75.9,66.9,74,29.92,10.0,North,9.2,-,0.00,,Overcast,350,2013-05-21 02:39:00
4:53 PM,75.0,66.0,73,29.92,10.0,North,10.4,-,0.00,,Overcast,350,2013-05-21 02:53:00
5:29 PM,75.0,66.9,76,29.93,10.0,NNW,9.2,-,0.00,Rain,Light Rain,340,2013-05-21 03:29:00
5:53 PM,73.9,68.0,82,29.94,9.0,NNW,5.8,-,0.00,Rain,Light Rain,340,2013-05-21 03:53:00
6:29 PM,73.0,68.0,84,29.95,10.0,NNE,4.6,-,0.01,Rain,Light Rain,20,2013-05-21 04:29:00
6:53 PM,72.0,66.9,84,29.95,10.0,North,5.8,-,0.01,,Overcast,350,2013-05-21 04:53:00
7:53 PM,72.0,66.9,84,29.97,10.0,NNE,4.6,-,N/A,,Overcast,20,2013-05-21 05:53:00
9:53 PM,70.0,66.9,90,30.00,10.0,SSE,3.5,-,0.00,,Mostly Cloudy,160,2013-05-21 07:53:00
10:50 PM,69.8,66.2,88,30.00,10.0,SSE,3.5,-,N/A,,Mostly Cloudy,160,2013-05-21 08:50:00
10:53 PM,69.1,66.9,93,30.00,10.0,South,3.5,-,N/A,,Mostly Cloudy,170,2013-05-21 08:53:00
11:53 PM,69.1,66.0,90,29.99,10.0,SSW,3.5,-,N/A,,Scattered Clouds,200,2013-05-21 09:53:00